CW6770 Weather Reports


Display with metric or nautical units.
time (UTC)temp
F
wind
direction
speed
MPH
gust
MPH
rain 1hr
in
rain 24hr
in
rain mn
in
humidity
%
barometer
mb
20200408204030 49 247 2.0 9.0 0.00 0.00 0.00 51 1002.1
20200408203529 49 238 1.0 6.0 0.00 0.00 0.00 54 1002.1
20200408203055 49 130 1.0 6.0 0.00 0.00 0.00 53 1002.2
20200408202527 49 159 1.0 4.0 0.00 0.00 0.00 54 1002.1
20200408202027 50 188 1.0 7.0 0.00 0.00 0.00 51 1002.1
20200408201543 50 242 1.0 7.0 0.00 0.00 0.00 49 1002.0
20200408201028 50 217 1.0 8.0 0.00 0.00 0.00 51 1002.1
20200408200529 50 192 2.0 8.0 0.00 0.00 0.00 52 1002.2
20200408200100 49 206 1.0 7.0 0.00 0.00 0.00 52 1002.1
20200408195533 50 251 1.0 8.0 0.00 0.00 0.00 53 1001.9
20200408195041 49 257 2.0 8.0 0.00 0.00 0.00 53 1002.0
20200408194610 49 262 2.0 9.0 0.00 0.00 0.00 55 1002.1
20200408194029 48 220 4.0 9.0 0.00 0.00 0.00 54 1002.2
20200408193529 49 251 3.0 10.0 0.00 0.00 0.00 53 1002.1
20200408193038 50 281 4.0 10.0 0.00 0.00 0.00 51 1002.1
20200408192530 50 244 1.0 8.0 0.00 0.00 0.00 55 1001.9
20200408192031 49 168 1.0 5.0 0.00 0.00 0.00 52 1002.1
20200408191630 49 33 2.0 8.0 0.00 0.00 0.00 52 1002.2
20200408191028 50 0 2.0 10.0 0.00 0.00 0.00 50 1002.2
20200408190527 48 292 5.0 10.0 0.00 0.00 0.00 47 1002.2
20200408190108 47 61 5.0 10.0 0.00 0.00 0.00 58 1002.2
20200408185532 46 52 6.0 9.0 0.00 0.00 0.00 59 1002.1
20200408185036 47 48 6.0 9.0 0.00 0.00 0.00 58 1002.1
20200408184619 46 69 4.0 7.0 0.00 0.00 0.00 59 1002.3
20200408184043 46 61 4.0 6.0 0.00 0.00 0.00 54 1002.3
20200408183528 46 64 3.0 7.0 0.00 0.00 0.00 58 1002.3
20200408183032 46 63 5.0 9.0 0.00 0.00 0.00 53 1002.4
20200408182532 46 75 6.0 12.0 0.00 0.00 0.00 49 1002.5
20200408182033 47 67 7.0 12.0 0.00 0.00 0.00 47 1002.5
20200408181537 47 49 8.0 12.0 0.00 0.00 0.00 47 1002.5
20200408181029 46 38 7.0 11.0 0.00 0.00 0.00 52 1002.5
20200408180527 46 46 5.0 10.0 0.00 0.00 0.00 50 1002.5
20200408180117 46 53 7.0 11.0 0.00 0.00 0.00 49 1002.6
20200408175531 46 42 7.0 11.0 0.00 0.00 0.00 57 1002.8
20200408175032 46 47 5.0 9.0 0.00 0.00 0.00 57 1002.7
20200408174539 47 50 4.0 11.0 0.00 0.00 0.00 52 1002.9
20200408174029 46 36 8.0 16.0 0.00 0.00 0.00 41 1002.9
20200408173529 47 36 9.0 16.0 0.00 0.00 0.00 41 1003.0
20200408173047 46 51 6.0 10.0 0.00 0.00 0.00 54 1003.1
20200408172530 47 69 6.0 14.0 0.00 0.00 0.00 47 1003.1
20200408172029 46 32 7.0 14.0 0.00 0.00 0.00 50 1003.2
20200408171544 46 59 8.0 11.0 0.00 0.00 0.00 46 1003.2
20200408171028 46 46 7.0 11.0 0.00 0.00 0.00 56 1003.2
20200408170529 46 37 6.0 9.0 0.00 0.00 0.00 57 1003.2
20200408170101 45 61 5.0 10.0 0.00 0.00 0.00 56 1003.3
20200408165537 46 63 7.0 11.0 0.00 0.00 0.00 49 1003.4
20200408165027 45 55 6.0 11.0 0.00 0.00 0.00 58 1003.3
20200408164531 46 56 8.0 11.0 0.00 0.00 0.00 49 1003.2
20200408164027 45 48 8.0 11.0 0.00 0.00 0.00 54 1003.3
20200408163536 45 44 4.0 10.0 0.00 0.00 0.00 58 1003.3
20200408163057 46 38 7.0 10.0 0.00 0.00 0.00 56 1003.3
20200408162527 46 35 6.0 11.0 0.00 0.00 0.00 48 1003.4
20200408162028 46 33 8.0 12.0 0.00 0.00 0.00 51 1003.3
20200408161534 46 50 7.0 12.0 0.00 0.00 0.00 50 1003.5
20200408161032 46 31 9.0 13.0 0.00 0.00 0.00 52 1003.6
20200408160528 46 30 7.0 13.0 0.00 0.00 0.00 44 1003.5
20200408160138 45 35 4.0 6.0 0.00 0.00 0.00 53 1003.6
20200408155532 44 40 4.0 6.0 0.00 0.00 0.00 61 1003.6
20200408155108 44 34 4.0 6.0 0.00 0.00 0.00 63 1003.8
20200408154637 44 32 4.0 8.0 0.00 0.00 0.00 62 1003.8
20200408154025 44 34 5.0 9.0 0.00 0.00 0.00 58 1003.8
20200408153536 44 34 6.0 10.0 0.00 0.00 0.00 62 1003.9
20200408153131 44 34 5.0 10.0 0.00 0.00 0.00 62 1003.9
20200408152527 44 32 5.0 8.0 0.00 0.00 0.00 54 1003.8
20200408152028 44 36 4.0 8.0 0.00 0.00 0.00 60 1004.0
20200408151530 44 33 5.0 10.0 0.00 0.00 0.00 57 1003.9
20200408151032 44 34 5.0 10.0 0.00 0.00 0.00 59 1004.0
20200408150533 44 31 6.0 9.0 0.00 0.00 0.00 57 1004.0
20200408150049 44 34 3.0 7.0 0.00 0.00 0.00 58 1004.0
20200408145528 43 32 5.0 7.0 0.00 0.00 0.00 55 1003.8
20200408145033 43 40 5.0 10.0 0.00 0.00 0.00 61 1004.0
20200408144530 43 51 4.0 10.0 0.00 0.00 0.00 59 1003.8
20200408144026 43 45 5.0 10.0 0.00 0.00 0.00 62 1003.8
20200408143537 42 43 5.0 10.0 0.00 0.00 0.00 64 1003.8
20200408143046 43 49 7.0 10.0 0.00 0.00 0.00 59 1003.8
20200408142529 42 78 8.0 10.0 0.00 0.00 0.00 58 1003.7
20200408142033 42 67 7.0 10.0 0.00 0.00 0.00 52 1003.7
20200408141534 42 71 6.0 10.0 0.00 0.00 0.00 57 1003.7
20200408141028 42 70 6.0 11.0 0.00 0.00 0.00 60 1003.6
20200408140529 42 53 9.0 11.0 0.00 0.00 0.00 55 1003.5
20200408140042 42 62 7.0 11.0 0.00 0.00 0.00 60 1003.7
20200408135530 42 58 9.0 11.0 0.00 0.00 0.00 60 1003.7
20200408135032 41 62 8.0 13.0 0.00 0.00 0.00 57 1003.7
20200408134623 41 69 10.0 13.0 0.00 0.00 0.00 56 1003.5
20200408134032 41 65 9.0 11.0 0.00 0.00 0.00 56 1004.0
20200408133529 41 68 8.0 13.0 0.00 0.00 0.00 55 1003.8
20200408133051 41 67 9.0 14.0 0.00 0.00 0.00 58 1003.8
20200408132531 41 57 11.0 14.0 0.00 0.00 0.00 56 1003.8
20200408132029 41 53 10.0 13.0 0.00 0.00 0.00 54 1003.6
20200408131548 40 65 11.0 14.0 0.00 0.00 0.00 59 1003.8
20200408131025 40 61 9.0 14.0 0.00 0.00 0.00 60 1003.9
20200408130528 40 53 10.0 12.0 0.00 0.00 0.00 59 1004.0
20200408130101 40 59 10.0 12.0 0.00 0.00 0.00 60 1004.0
20200408125528 40 55 9.0 12.0 0.00 0.00 0.00 59 1003.9
20200408125051 40 55 9.0 13.0 0.00 0.00 0.00 61 1004.0
20200408124528 40 63 10.0 13.0 0.00 0.00 0.00 59 1003.8
20200408124038 39 47 9.0 11.0 0.00 0.00 0.00 68 1003.9
20200408123533 39 48 8.0 12.0 0.00 0.00 0.00 68 1003.9
20200408123031 38 44 9.0 12.0 0.00 0.00 0.00 69 1004.0
20200408122527 38 49 9.0 12.0 0.00 0.00 0.00 70 1004.0
20200408122026 38 46 8.0 12.0 0.00 0.00 0.00 73 1003.9
20200408121531 38 43 8.0 11.0 0.00 0.00 0.00 74 1003.9
20200408121027 37 44 8.0 11.0 0.00 0.00 0.00 73 1004.0
20200408120536 37 40 8.0 10.0 0.00 0.00 0.00 77 1003.8
20200408120042 36 40 7.0 10.0 0.00 0.00 0.00 80 1003.8
20200408115528 36 36 7.0 10.0 0.00 0.00 0.00 80 1004.0
20200408115026 35 45 6.0 10.0 0.00 0.00 0.00 84 1004.0
20200408114543 35 49 7.0 10.0 0.00 0.00 0.00 84 1003.9
20200408114027 35 45 7.0 10.0 0.00 0.00 0.00 84 1003.9
20200408113527 34 53 6.0 10.0 0.00 0.00 0.00 85 1003.9
20200408113135 34 43 7.0 11.0 0.00 0.00 0.00 86 1004.0
20200408112525 34 46 8.0 11.0 0.00 0.00 0.00 85 1004.0
20200408112030 34 38 7.0 12.0 0.00 0.00 0.00 85 1003.9
20200408111648 33 40 9.0 12.0 0.00 0.00 0.00 86 1003.8
20200408111027 33 41 9.0 12.0 0.00 0.00 0.00 86 1003.8
20200408110543 33 40 8.0 12.0 0.00 0.00 0.00 87 1003.9
20200408110102 33 56 8.0 11.0 0.00 0.00 0.00 87 1004.0
20200408105528 33 50 7.0 11.0 0.00 0.00 0.00 87 1003.9
20200408105032 33 53 8.0 11.0 0.00 0.00 0.00 87 1004.0
20200408104553 33 50 7.0 11.0 0.00 0.00 0.00 87 1003.9
20200408104034 33 53 8.0 11.0 0.00 0.00 0.00 87 1003.8
20200408103527 33 42 6.0 11.0 0.00 0.00 0.00 88 1003.7
20200408103147 33 51 8.0 11.0 0.00 0.00 0.00 88 1003.7
20200408102528 32 50 6.0 9.0 0.00 0.00 0.00 89 1003.7
20200408102032 32 22 5.0 9.0 0.00 0.00 0.00 89 1003.7
20200408101536 32 38 5.0 9.0 0.00 0.00 0.00 89 1003.7
20200408101036 32 36 5.0 10.0 0.00 0.00 0.00 89 1003.7
20200408100528 32 36 5.0 10.0 0.00 0.00 0.00 90 1003.7
20200408100113 32 26 7.0 10.0 0.00 0.00 0.00 90 1003.8
20200408095527 32 44 5.0 9.0 0.00 0.00 0.00 91 1003.6
20200408095025 32 24 5.0 9.0 0.00 0.00 0.00 92 1003.6
20200408094530 30 43 1.0 5.0 0.00 0.00 0.00 92 1003.7
20200408094027 30 0 0.0 3.0 0.00 0.00 0.00 91 1003.8
20200408093527 30 0 0.0 5.0 0.00 0.00 0.00 91 1003.8
20200408093135 31 0 0.0 5.0 0.00 0.00 0.00 90 1004.0
20200408092547 31 36 1.0 5.0 0.00 0.00 0.00 91 1003.9
20200408092035 31 0 0.0 6.0 0.00 0.00 0.00 90 1004.0
20200408091547 31 0 0.0 8.0 0.00 0.00 0.00 90 1004.0
20200408091025 31 30 4.0 8.0 0.00 0.00 0.00 92 1003.9
20200408090525 31 31 1.0 6.0 0.00 0.00 0.00 91 1003.9
20200408090110 31 31 2.0 6.0 0.00 0.00 0.00 92 1004.1
20200408085534 31 30 1.0 4.0 0.00 0.00 0.00 92 1004.1
20200408085025 31 0 0.0 4.0 0.00 0.00 0.00 92 1004.2
20200408084537 30 0 0.0 4.0 0.00 0.00 0.00 92 1004.2
20200408084028 30 30 0.0 1.0 0.00 0.00 0.00 91 1004.2
20200408083528 30 0 0.0 2.0 0.00 0.00 0.00 91 1004.1
20200408083131 31 0 0.0 5.0 0.00 0.00 0.00 90 1004.0
20200408082527 31 0 0.0 5.0 0.00 0.00 0.00 90 1003.9
20200408082033 31 30 2.0 5.0 0.00 0.00 0.00 93 1004.0
20200408081557 31 0 1.0 3.0 0.00 0.00 0.00 91 1004.0
20200408081029 31 0 0.0 2.0 0.00 0.00 0.00 90 1004.0
20200408080532 32 0 0.0 6.0 0.00 0.00 0.00 90 1004.1
20200408080050 32 0 1.0 6.0 0.00 0.00 0.00 92 1004.3
20200408075524 32 0 1.0 4.0 0.00 0.00 0.00 91 1004.2
20200408075027 32 31 0.0 5.0 0.00 0.00 0.00 91 1004.4
20200408074544 32 31 3.0 5.0 0.00 0.00 0.00 93 1004.4
20200408074027 32 30 2.0 3.0 0.00 0.00 0.00 93 1004.5
20200408073533 32 0 0.0 9.0 0.00 0.00 0.00 92 1004.7
20200408073028 32 0 2.0 9.0 0.00 0.00 0.00 92 1004.7
20200408072525 32 26 2.0 8.0 0.00 0.00 0.00 93 1004.7
20200408072028 32 0 2.0 5.0 0.00 0.00 0.00 94 1004.8
20200408071539 31 30 0.0 3.0 0.00 0.00 0.00 93 1004.9
20200408071025 31 30 0.0 2.0 0.00 0.00 0.00 92 1005.0
20200408070535 31 0 0.0 2.0 0.00 0.00 0.00 93 1005.1
20200408070039 31 0 0.0 2.0 0.00 0.00 0.00 92 1005.2
20200408065541 31 0 0.0 4.0 0.00 0.00 0.00 92 1005.3
20200408065034 31 0 0.0 4.0 0.00 0.00 0.00 92 1005.4
20200408064537 31 30 1.0 4.0 0.00 0.00 0.00 94 1005.5
20200408064029 30 0 0.0 0.0 0.00 0.00 0.00 93 1005.6
20200408063529 30 0 0.0 0.0 0.00 0.00 0.00 92 1005.7
20200408063036 31 0 0.0 1.0 0.00 0.00 0.00 92 1005.6
20200408062533 31 0 0.0 6.0 0.00 0.00 0.00 92 1005.6
20200408062033 31 0 0.0 6.0 0.00 0.00 0.00 94 1005.8
20200408061603 31 27 1.0 5.0 0.00 0.00 0.00 94 1005.7
20200408061037 30 0 0.0 1.0 0.00 0.00 0.00 93 1005.8
20200408060528 30 0 0.0 2.0 0.00 0.00 0.00 92 1005.9
20200408060038 31 0 0.0 5.0 0.00 0.00 0.00 93 1005.8
20200408055531 31 0 2.0 5.0 0.00 0.00 0.00 95 1005.8
20200408055032 29 0 0.0 1.0 0.00 0.00 0.00 93 1005.8
20200408054550 29 0 0.0 2.0 0.00 0.00 0.00 93 1005.9
20200408054031 29 0 0.0 2.0 0.00 0.00 0.00 92 1006.0
20200408053543 29 0 0.0 2.0 0.00 0.00 0.00 92 1006.2
20200408053050 29 24 0.0 2.0 0.00 0.00 0.00 92 1006.3
20200408052531 29 24 0.0 2.0 0.00 0.00 0.00 92 1006.4
20200408052031 30 24 0.0 2.0 0.00 0.00 0.00 91 1006.6
20200408051554 30 24 0.0 2.0 0.00 0.00 0.00 92 1006.6
20200408051032 30 0 0.0 2.0 0.00 0.00 0.00 92 1006.7
20200408050536 30 0 0.0 2.0 0.00 0.00 0.00 92 1006.8
20200408050101 31 0 0.0 2.0 0.00 0.00 0.00 92 1006.9
20200408045535 31 0 0.0 2.0 0.00 0.00 0.00 92 1006.9
20200408045031 30 0 0.0 2.0 0.00 0.00 0.00 91 1007.0
20200408044551 31 24 1.0 2.0 0.00 0.00 0.00 90 1007.0
20200408044031 31 0 0.0 0.0 0.00 0.00 0.00 91 1007.0
20200408043532 31 0 0.0 0.0 0.00 0.00 0.00 90 1007.1
20200408043121 31 0 0.0 0.0 0.00 0.00 0.00 89 1007.3
20200408042530 32 0 0.0 1.0 0.00 0.00 0.00 89 1007.3
20200408042032 32 0 0.0 1.0 0.00 0.00 0.00 89 1007.3
20200408041552 33 0 0.0 1.0 0.00 0.00 0.00 87 1007.4
20200408041035 34 0 0.0 5.0 0.00 0.00 0.00 87 1007.5
20200408040537 35 0 2.0 6.0 0.00 0.00 0.00 90 1007.5
20200408040047 34 24 3.0 6.0 0.00 0.00 0.00 90 1007.6
20200408035529 34 41 1.0 6.0 0.00 0.00 0.00 90 1007.7
20200408035029 34 41 4.0 6.0 0.00 0.00 0.00 94 1007.8
20200408034614 32 50 2.0 5.0 0.00 0.00 0.00 94 1007.8
20200408034034 31 0 0.0 1.0 0.00 0.00 0.00 92 1007.9
20200408033532 31 0 0.0 1.0 0.00 0.00 0.00 91 1007.9
20200408033119 31 0 0.0 1.0 0.00 0.00 0.00 91 1007.9
20200408032529 31 0 0.0 2.0 0.00 0.00 0.00 92 1008.2
20200408032028 31 0 0.0 2.0 0.00 0.00 0.00 91 1008.2
20200408031600 31 204 0.0 2.0 0.00 0.00 0.00 91 1008.1
20200408031032 31 0 0.0 1.0 0.00 0.00 0.00 90 1008.2
20200408030528 31 204 0.0 1.0 0.00 0.00 0.00 90 1008.3
20200408030156 31 0 0.0 2.0 0.00 0.00 0.00 91 1008.2
20200408025529 31 0 0.0 2.0 0.00 0.00 0.00 90 1008.1
20200408025033 31 0 1.0 3.0 0.00 0.00 0.00 91 1008.1
20200408024556 32 204 1.0 3.0 0.00 0.00 0.00 90 1008.1
20200408024030 32 204 1.0 2.0 0.00 0.00 0.00 90 1008.0
20200408023538 32 204 1.0 2.0 0.00 0.00 0.00 90 1008.2
20200408023059 32 204 1.0 2.0 0.00 0.00 0.00 90 1008.2
20200408022531 32 204 0.0 2.0 0.00 0.00 0.00 91 1008.3
20200408022030 32 204 1.0 2.0 0.00 0.00 0.00 90 1008.4
20200408021528 32 204 1.0 2.0 0.00 0.00 0.00 90 1008.5
20200408021030 32 204 1.0 2.0 0.00 0.00 0.00 89 1008.5
20200408020529 33 204 1.0 2.0 0.00 0.00 0.00 88 1008.7
20200408020043 33 204 1.0 2.0 0.00 0.00 0.00 89 1008.7
20200408015530 33 204 0.0 2.0 0.00 0.00 0.00 90 1008.8
20200408015052 33 204 1.0 2.0 0.00 0.00 0.00 89 1008.9
20200408014605 33 204 1.0 2.0 0.00 0.00 0.00 88 1008.9
20200408014030 33 204 1.0 2.0 0.00 0.00 0.00 88 1009.0
20200408013530 33 204 1.0 2.0 0.00 0.00 0.00 88 1009.1
20200408013124 33 204 1.0 2.0 0.00 0.00 0.00 88 1009.1
20200408012533 33 204 1.0 2.0 0.00 0.00 0.00 87 1009.3
20200408012035 34 0 0.0 3.0 0.00 0.00 0.00 88 1009.4
20200408011631 34 0 0.0 3.0 0.00 0.00 0.00 87 1009.5
20200408011042 34 204 1.0 2.0 0.00 0.00 0.00 86 1009.5
20200408010531 34 0 0.0 2.0 0.00 0.00 0.00 86 1009.5
20200408010109 34 204 1.0 2.0 0.00 0.00 0.00 86 1009.5
20200408005548 34 204 1.0 2.0 0.00 0.00 0.00 86 1009.5
20200408005029 34 204 1.0 2.0 0.00 0.00 0.00 85 1009.4
20200408004646 35 204 1.0 3.0 0.00 0.00 0.00 85 1009.4
20200408004038 35 204 1.0 3.0 0.00 0.00 0.00 85 1009.4
20200408003529 35 204 0.0 2.0 0.00 0.00 0.00 83 1009.4
20200408003052 35 204 0.0 2.0 0.00 0.00 0.00 83 1009.6
20200408002528 35 0 0.0 2.0 0.00 0.00 0.00 83 1009.4
20200408002027 35 204 1.0 3.0 0.00 0.00 0.00 84 1009.3
20200408001613 36 204 1.0 4.0 0.00 0.00 0.00 82 1009.3
20200408001037 36 204 2.0 4.0 0.00 0.00 0.00 81 1009.3
20200408000528 37 202 0.0 2.0 0.00 0.00 0.00 82 1009.2
20200408000122 37 0 0.0 0.0 0.00 0.00 0.00 80 1009.3
20200407235534 38 0 0.0 0.0 0.00 0.00 0.00 79 1009.3
20200407235029 38 0 0.0 0.0 0.00 0.00 0.00 78 1009.2
20200407234546 39 0 0.0 0.0 0.00 0.00 0.00 78 1009.1
20200407234032 39 0 0.0 1.0 0.00 0.00 0.00 78 1009.0
20200407233531 39 0 0.0 1.0 0.00 0.00 0.00 77 1009.0
20200407233100 39 0 0.0 1.0 0.00 0.00 0.00 76 1009.1
20200407232528 40 0 0.0 2.0 0.00 0.00 0.00 75 1009.1
20200407232028 40 0 0.0 4.0 0.00 0.00 0.00 74 1009.0
20200407231620 40 0 0.0 4.0 0.00 0.00 0.00 74 1009.0
20200407231031 40 0 0.0 3.0 0.00 0.00 0.00 72 1008.8
20200407230528 40 190 1.0 3.0 0.00 0.00 0.00 72 1008.7
20200407230053 40 0 0.0 6.0 0.00 0.00 0.00 70 1008.6
20200407225528 41 0 0.0 6.0 0.00 0.00 0.00 68 1008.6
20200407225031 41 163 0.0 5.0 0.00 0.00 0.00 67 1008.7
20200407224541 42 0 0.0 5.0 0.00 0.00 0.00 66 1008.7
20200407224043 42 0 0.0 4.0 0.00 0.00 0.00 64 1008.7
20200407223545 42 0 0.0 3.0 0.00 0.00 0.00 63 1008.7
20200407223107 43 0 0.0 3.0 0.00 0.00 0.00 62 1008.4
20200407222534 43 0 0.0 4.0 0.00 0.00 0.00 61 1008.4
20200407222054 43 0 0.0 7.0 0.00 0.00 0.00 60 1008.3
20200407221553 43 0 0.0 7.0 0.00 0.00 0.00 59 1008.3
20200407221035 43 0 0.0 7.0 0.00 0.00 0.00 59 1008.1
20200407220531 44 0 1.0 7.0 0.00 0.00 0.00 60 1008.0
20200407220034 44 0 1.0 7.0 0.00 0.00 0.00 60 1008.0
20200407215529 44 198 2.0 8.0 0.00 0.00 0.00 59 1008.0
20200407215029 44 194 3.0 8.0 0.00 0.00 0.00 59 1008.0
20200407214650 44 252 2.0 9.0 0.00 0.00 0.00 61 1008.0
20200407214034 44 198 2.0 9.0 0.00 0.00 0.00 60 1008.0
20200407213545 44 221 2.0 7.0 0.00 0.00 0.00 60 1007.9
20200407213047 45 221 1.0 5.0 0.00 0.00 0.00 61 1008.0
20200407212528 45 0 0.0 5.0 0.00 0.00 0.00 60 1007.9
20200407212034 45 169 1.0 5.0 0.00 0.00 0.00 62 1007.9
20200407211609 45 0 0.0 5.0 0.00 0.00 0.00 62 1007.9
20200407211036 45 238 2.0 8.0 0.00 0.00 0.00 61 1007.9
20200407210545 46 225 0.0 8.0 0.00 0.00 0.00 58 1007.9
20200407210042 46 261 2.0 7.0 0.00 0.00 0.00 57 1007.9
20200407205539 47 0 1.0 7.0 0.00 0.00 0.00 56 1007.8
20200407205029 46 245 1.0 8.0 0.00 0.00 0.00 57 1007.8
20200407204559 45 242 3.0 8.0 0.00 0.00 0.00 56 1007.8